| time (UTC) | temp F | wind direction | speed knots | gust knots | rain 1hr in | rain 24hr in | rain mn in | humidity % | barometer mb |
| 20260508153504 | 54 | 92 | 2.6 | 4.3 | 0.00 | 0.03 | 0.02 | 71 | 1018.6 |
| 20260508153005 | 54 | 64 | 1.7 | 4.3 | 0.00 | 0.03 | 0.02 | 71 | 1018.6 |
| 20260508152746 | 54 | 70 | 2.6 | 4.3 | 0.00 | 0.03 | 0.02 | 71 | 1018.5 |
| 20260508152004 | 54 | 37 | 1.7 | 6.1 | 0.00 | 0.03 | 0.02 | 71 | 1018.5 |
| 20260508151504 | 54 | 34 | 4.3 | 6.1 | 0.00 | 0.04 | 0.02 | 71 | 1018.5 |
| 20260508151006 | 54 | 47 | 3.5 | 5.2 | 0.00 | 0.05 | 0.02 | 71 | 1018.6 |
| 20260508150503 | 54 | 53 | 2.6 | 6.1 | 0.00 | 0.05 | 0.02 | 71 | 1018.6 |
| 20260508150006 | 54 | 27 | 4.3 | 6.1 | 0.00 | 0.06 | 0.02 | 71 | 1018.6 |
| 20260508145505 | 54 | 27 | 4.3 | 6.1 | 0.00 | 0.06 | 0.02 | 70 | 1018.6 |
| 20260508145005 | 54 | 54 | 3.5 | 6.1 | 0.00 | 0.06 | 0.02 | 70 | 1018.6 |
| 20260508144749 | 54 | 39 | 4.3 | 6.1 | 0.00 | 0.07 | 0.02 | 70 | 1018.7 |
| 20260508144004 | 54 | 61 | 3.5 | 7.8 | 0.00 | 0.07 | 0.02 | 70 | 1018.4 |
| 20260508143505 | 54 | 33 | 3.5 | 9.6 | 0.00 | 0.07 | 0.02 | 68 | 1018.5 |
| 20260508143005 | 54 | 16 | 6.1 | 9.6 | 0.00 | 0.07 | 0.02 | 69 | 1018.5 |
| 20260508142505 | 55 | 40 | 2.6 | 8.7 | 0.00 | 0.07 | 0.02 | 69 | 1018.5 |
| 20260508142006 | 55 | 41 | 5.2 | 8.7 | 0.00 | 0.07 | 0.02 | 68 | 1018.5 |
| 20260508141503 | 55 | 49 | 4.3 | 6.1 | 0.00 | 0.07 | 0.02 | 68 | 1018.4 |
| 20260508141006 | 56 | 358 | 4.3 | 8.7 | 0.00 | 0.07 | 0.02 | 67 | 1018.5 |
| 20260508140505 | 56 | 356 | 4.3 | 8.7 | 0.00 | 0.07 | 0.02 | 67 | 1018.4 |
| 20260508140005 | 56 | 40 | 4.3 | 6.1 | 0.00 | 0.07 | 0.02 | 67 | 1018.4 |
| 20260508135504 | 56 | 26 | 4.3 | 6.1 | 0.00 | 0.07 | 0.02 | 68 | 1018.4 |
| 20260508135246 | 56 | 16 | 1.7 | 5.2 | 0.00 | 0.07 | 0.02 | 71 | 1018.2 |
| 20260508134505 | 55 | 39 | 3.5 | 4.3 | 0.00 | 0.07 | 0.02 | 71 | 1018.3 |
| 20260508134004 | 55 | 54 | 2.6 | 4.3 | 0.00 | 0.07 | 0.02 | 71 | 1018.4 |
| 20260508133504 | 55 | 33 | 3.5 | 4.3 | 0.00 | 0.07 | 0.02 | 72 | 1018.4 |
| 20260508133003 | 54 | 47 | 2.6 | 4.3 | 0.00 | 0.07 | 0.02 | 71 | 1018.5 |
| 20260508132504 | 54 | 33 | 3.5 | 5.2 | 0.00 | 0.07 | 0.02 | 71 | 1018.5 |
| 20260508132004 | 55 | 50 | 3.5 | 5.2 | 0.00 | 0.07 | 0.02 | 70 | 1018.6 |
| 20260508131501 | 55 | 43 | 1.7 | 4.3 | 0.00 | 0.07 | 0.02 | 69 | 1018.6 |
| 20260508130933 | 55 | 68 | 1.7 | 6.1 | 0.00 | 0.07 | 0.02 | 70 | 1018.7 |
| 20260508130431 | 55 | 67 | 5.2 | 6.1 | 0.00 | 0.07 | 0.02 | 69 | 1018.8 |
| 20260508125933 | 56 | 54 | 3.5 | 6.1 | 0.00 | 0.07 | 0.02 | 70 | 1018.8 |
| 20260508125407 | 55 | 8 | 2.6 | 4.3 | 0.00 | 0.07 | 0.02 | 72 | 1018.8 |
| 20260508124905 | 55 | 8 | 0.9 | 3.5 | 0.00 | 0.07 | 0.02 | 72 | 1018.8 |
| 20260508124407 | 54 | 8 | 0.9 | 4.3 | 0.00 | 0.07 | 0.02 | 72 | 1018.8 |
| 20260508123904 | 54 | 5 | 2.6 | 4.3 | 0.00 | 0.07 | 0.02 | 76 | 1018.8 |
| 20260508123404 | 53 | 2 | 0.9 | 3.5 | 0.00 | 0.07 | 0.02 | 76 | 1018.8 |
| 20260508122905 | 53 | 2 | 0.9 | 3.5 | 0.00 | 0.07 | 0.02 | 76 | 1018.7 |
| 20260508122403 | 53 | 2 | 1.7 | 3.5 | 0.00 | 0.07 | 0.02 | 76 | 1018.7 |
| 20260508122154 | 52 | 10 | 0.9 | 3.5 | 0.00 | 0.07 | 0.02 | 76 | 1018.7 |
| 20260508121403 | 52 | 10 | 2.6 | 4.3 | 0.00 | 0.07 | 0.02 | 76 | 1018.8 |
| 20260508120903 | 52 | 10 | 3.5 | 4.3 | 0.00 | 0.07 | 0.02 | 76 | 1019.0 |
| 20260508120403 | 52 | 6 | 3.5 | 4.3 | 0.00 | 0.07 | 0.02 | 76 | 1019.0 |
| 20260508115902 | 52 | 25 | 2.6 | 5.2 | 0.00 | 0.07 | 0.02 | 74 | 1019.0 |
| 20260508115401 | 52 | 29 | 4.3 | 5.2 | 0.00 | 0.07 | 0.02 | 74 | 1018.9 |
| 20260508115140 | 53 | 44 | 3.5 | 4.3 | 0.00 | 0.07 | 0.02 | 75 | 1019.0 |
| 20260508114402 | 53 | 13 | 3.5 | 8.7 | 0.00 | 0.07 | 0.02 | 74 | 1018.9 |
| 20260508114149 | 53 | 3 | 4.3 | 8.7 | 0.00 | 0.07 | 0.02 | 73 | 1018.9 |
| 20260508113402 | 53 | 26 | 2.6 | 4.3 | 0.00 | 0.07 | 0.02 | 74 | 1018.9 |
| 20260508112903 | 54 | 29 | 2.6 | 3.5 | 0.00 | 0.07 | 0.02 | 74 | 1018.9 |
| 20260508112401 | 53 | 6 | 0.0 | 4.3 | 0.00 | 0.07 | 0.02 | 77 | 1018.8 |
| 20260508111902 | 53 | 8 | 0.9 | 4.3 | 0.00 | 0.07 | 0.02 | 77 | 1018.8 |
| 20260508111402 | 53 | 23 | 0.0 | 3.5 | 0.00 | 0.07 | 0.02 | 78 | 1018.8 |
| 20260508110901 | 53 | 91 | 0.9 | 2.6 | 0.00 | 0.07 | 0.02 | 78 | 1018.8 |
| 20260508110402 | 52 | 87 | 1.7 | 2.6 | 0.00 | 0.07 | 0.02 | 77 | 1018.9 |
| 20260508105900 | 52 | 56 | 0.9 | 4.3 | 0.00 | 0.07 | 0.02 | 78 | 1018.9 |
| 20260508105650 | 52 | 54 | 0.9 | 4.3 | 0.00 | 0.07 | 0.02 | 78 | 1018.9 |
| 20260508104901 | 52 | 37 | 0.9 | 4.3 | 0.00 | 0.07 | 0.02 | 78 | 1018.8 |
| 20260508104400 | 52 | 65 | 1.7 | 3.5 | 0.00 | 0.08 | 0.02 | 78 | 1018.9 |
| 20260508103901 | 52 | 65 | 1.7 | 3.5 | 0.00 | 0.08 | 0.02 | 79 | 1018.9 |
| 20260508103440 | 51 | 29 | 0.0 | 3.5 | 0.00 | 0.09 | 0.02 | 80 | 1018.8 |
| 20260508103428 | 51 | 30 | 1.7 | 3.5 | 0.00 | 0.08 | 0.02 | 80 | 1018.9 |
| 20260508102402 | 51 | 29 | 0.9 | 4.3 | 0.00 | 0.09 | 0.02 | 80 | 1018.9 |
| 20260508101901 | 51 | 29 | 2.6 | 4.3 | 0.00 | 0.09 | 0.02 | 80 | 1018.9 |
| 20260508101402 | 51 | 20 | 2.6 | 4.3 | 0.00 | 0.09 | 0.02 | 80 | 1018.9 |
| 20260508100902 | 51 | 3 | 3.5 | 4.3 | 0.00 | 0.09 | 0.02 | 81 | 1018.8 |
| 20260508100402 | 51 | 1 | 3.5 | 4.3 | 0.00 | 0.09 | 0.02 | 81 | 1018.9 |
| 20260508095901 | 51 | 359 | 2.6 | 3.5 | 0.00 | 0.09 | 0.02 | 82 | 1018.9 |
| 20260508095359 | 51 | 73 | 0.0 | 3.5 | 0.00 | 0.09 | 0.02 | 82 | 1018.8 |
| 20260508094900 | 51 | 73 | 1.7 | 4.3 | 0.00 | 0.09 | 0.02 | 82 | 1018.8 |
| 20260508094645 | 51 | 73 | 2.6 | 4.3 | 0.00 | 0.09 | 0.02 | 83 | 1018.8 |
| 20260508093900 | 51 | 71 | 1.7 | 3.5 | 0.00 | 0.09 | 0.02 | 83 | 1018.8 |
| 20260508093400 | 50 | 78 | 1.7 | 4.3 | 0.00 | 0.09 | 0.02 | 82 | 1018.8 |
| 20260508092859 | 50 | 20 | 1.7 | 4.3 | 0.00 | 0.09 | 0.02 | 83 | 1018.8 |
| 20260508092400 | 50 | 60 | 0.0 | 2.6 | 0.00 | 0.09 | 0.02 | 84 | 1018.8 |
| 20260508091858 | 50 | 60 | 0.9 | 3.5 | 0.00 | 0.09 | 0.02 | 84 | 1018.8 |
| 20260508091358 | 49 | 58 | 2.6 | 3.5 | 0.00 | 0.09 | 0.02 | 84 | 1018.9 |
| 20260508091148 | 49 | 58 | 1.7 | 3.5 | 0.00 | 0.09 | 0.02 | 85 | 1018.9 |
| 20260508090400 | 49 | 87 | 1.7 | 3.5 | 0.00 | 0.09 | 0.02 | 85 | 1018.9 |
| 20260508085859 | 49 | 87 | 1.7 | 3.5 | 0.00 | 0.09 | 0.02 | 86 | 1018.9 |
| 20260508085359 | 49 | 96 | 0.9 | 2.6 | 0.00 | 0.09 | 0.02 | 87 | 1018.8 |
| 20260508084858 | 49 | 96 | 1.7 | 2.6 | 0.00 | 0.09 | 0.02 | 87 | 1018.7 |
| 20260508084358 | 49 | 96 | 0.9 | 2.6 | 0.00 | 0.09 | 0.02 | 88 | 1018.7 |
| 20260508084141 | 49 | 98 | 1.7 | 2.6 | 0.00 | 0.09 | 0.02 | 88 | 1018.7 |
| 20260508083646 | 48 | 99 | 1.7 | 2.6 | 0.00 | 0.09 | 0.02 | 88 | 1018.7 |
| 20260508082900 | 48 | 65 | 0.9 | 2.6 | 0.00 | 0.09 | 0.02 | 88 | 1018.7 |
| 20260508082400 | 48 | 64 | 0.0 | 3.5 | 0.00 | 0.09 | 0.02 | 89 | 1018.7 |
| 20260508081857 | 48 | 64 | 0.9 | 3.5 | 0.00 | 0.09 | 0.02 | 89 | 1018.6 |
| 20260508081648 | 48 | 65 | 1.7 | 3.5 | 0.00 | 0.09 | 0.02 | 89 | 1018.6 |
| 20260508080858 | 47 | 60 | 0.9 | 3.5 | 0.00 | 0.09 | 0.02 | 89 | 1018.6 |
| 20260508080358 | 47 | 60 | 1.7 | 3.5 | 0.00 | 0.09 | 0.02 | 89 | 1018.6 |
| 20260508075856 | 47 | 60 | 0.9 | 2.6 | 0.00 | 0.09 | 0.02 | 89 | 1018.6 |
| 20260508075357 | 47 | 60 | 0.0 | 3.5 | 0.00 | 0.09 | 0.02 | 89 | 1018.5 |
| 20260508074857 | 47 | 60 | 1.7 | 3.5 | 0.00 | 0.09 | 0.02 | 89 | 1018.5 |
| 20260508074356 | 47 | 60 | 2.6 | 4.3 | 0.00 | 0.10 | 0.02 | 90 | 1018.4 |
| 20260508073857 | 47 | 60 | 1.7 | 4.3 | 0.00 | 0.10 | 0.02 | 90 | 1018.5 |
| 20260508073357 | 47 | 51 | 1.7 | 4.3 | 0.00 | 0.10 | 0.02 | 90 | 1018.5 |
| 20260508072857 | 47 | 29 | 1.7 | 4.3 | 0.00 | 0.10 | 0.02 | 90 | 1018.4 |
| 20260508072736 | 47 | 56 | 3.5 | 4.3 | 0.00 | 0.11 | 0.02 | 90 | 1018.2 |
| 20260508072419 | 47 | 27 | 3.5 | 4.3 | 0.00 | 0.10 | 0.02 | 90 | 1018.3 |
| 20260508071356 | 47 | 34 | 2.6 | 4.3 | 0.00 | 0.11 | 0.02 | 90 | 1018.3 |
| 20260508070857 | 47 | 70 | 2.6 | 4.3 | 0.00 | 0.11 | 0.02 | 90 | 1018.2 |
| 20260508070356 | 46 | 53 | 1.7 | 4.3 | 0.00 | 0.12 | 0.02 | 90 | 1018.3 |
| 20260508065857 | 46 | 36 | 3.5 | 4.3 | 0.00 | 0.12 | 0.02 | 90 | 1018.2 |
| 20260508065355 | 46 | 22 | 3.5 | 5.2 | 0.00 | 0.12 | 0.02 | 90 | 1018.2 |
| 20260508064856 | 46 | 44 | 3.5 | 5.2 | 0.00 | 0.12 | 0.02 | 91 | 1018.1 |
| 20260508064644 | 46 | 50 | 3.5 | 5.2 | 0.00 | 0.12 | 0.02 | 91 | 1018.1 |
| 20260508063857 | 46 | 57 | 2.6 | 5.2 | 0.00 | 0.12 | 0.02 | 91 | 1018.1 |
| 20260508063355 | 46 | 37 | 2.6 | 5.2 | 0.00 | 0.13 | 0.02 | 91 | 1017.9 |
| 20260508062856 | 46 | 41 | 2.6 | 5.2 | 0.00 | 0.13 | 0.02 | 91 | 1017.9 |
| 20260508062355 | 46 | 37 | 3.5 | 7.8 | 0.00 | 0.13 | 0.02 | 90 | 1017.8 |
| 20260508061855 | 46 | 53 | 4.3 | 7.8 | 0.00 | 0.13 | 0.02 | 91 | 1017.8 |
| 20260508061355 | 46 | 63 | 1.7 | 4.3 | 0.00 | 0.13 | 0.02 | 91 | 1017.8 |
| 20260508061221 | 46 | 33 | 1.7 | 5.2 | 0.00 | 0.13 | 0.02 | 91 | 1017.7 |
| 20260508061217 | 46 | 36 | 1.7 | 5.2 | 0.00 | 0.13 | 0.02 | 91 | 1017.7 |
| 20260508055855 | 45 | 34 | 2.6 | 5.2 | 0.00 | 0.13 | 0.02 | 91 | 1017.7 |
| 20260508055355 | 46 | 36 | 4.3 | 5.2 | 0.00 | 0.13 | 0.02 | 91 | 1017.7 |
| 20260508054854 | 46 | 22 | 3.5 | 5.2 | 0.00 | 0.13 | 0.02 | 91 | 1017.7 |
| 20260508054638 | 46 | 46 | 2.6 | 5.2 | 0.00 | 0.13 | 0.02 | 91 | 1017.7 |
| 20260508054142 | 46 | 30 | 2.6 | 5.2 | 0.00 | 0.13 | 0.02 | 91 | 1017.6 |
| 20260508053355 | 46 | 27 | 2.6 | 5.2 | 0.00 | 0.13 | 0.02 | 91 | 1017.6 |
| 20260508052857 | 46 | 36 | 1.7 | 4.3 | 0.00 | 0.13 | 0.02 | 91 | 1017.6 |
| 20260508052358 | 46 | 49 | 1.7 | 3.5 | 0.00 | 0.13 | 0.02 | 91 | 1017.6 |
| 20260508051857 | 46 | 54 | 1.7 | 4.3 | 0.00 | 0.13 | 0.02 | 91 | 1017.6 |
| 20260508051357 | 46 | 34 | 3.5 | 4.3 | 0.00 | 0.13 | 0.02 | 91 | 1017.5 |
| 20260508050857 | 46 | 39 | 2.6 | 3.5 | 0.00 | 0.13 | 0.02 | 91 | 1017.5 |
| 20260508050353 | 45 | 40 | 2.6 | 4.3 | 0.00 | 0.13 | 0.02 | 91 | 1017.6 |
| 20260508045853 | 45 | 65 | 3.5 | 4.3 | 0.00 | 0.13 | 0.02 | 91 | 1017.5 |
| 20260508045355 | 45 | 51 | 2.6 | 3.5 | 0.00 | 0.13 | 0.02 | 91 | 1017.5 |
| 20260508044855 | 45 | 51 | 1.7 | 3.5 | 0.00 | 0.13 | 0.02 | 91 | 1017.5 |
| 20260508044353 | 45 | 51 | 1.7 | 3.5 | 0.00 | 0.13 | 0.02 | 91 | 1017.2 |
| 20260508043853 | 45 | 39 | 0.9 | 4.3 | 0.00 | 0.13 | 0.02 | 91 | 1017.4 |
| 20260508043353 | 45 | 30 | 1.7 | 4.3 | 0.00 | 0.13 | 0.02 | 91 | 1017.2 |
| 20260508042853 | 45 | 33 | 0.9 | 3.5 | 0.00 | 0.13 | 0.02 | 91 | 1017.1 |
| 20260508042353 | 45 | 29 | 1.7 | 4.3 | 0.00 | 0.13 | 0.02 | 91 | 1017.0 |
| 20260508041853 | 45 | 9 | 2.6 | 5.2 | 0.00 | 0.13 | 0.02 | 91 | 1017.0 |
| 20260508041645 | 45 | 13 | 3.5 | 5.2 | 0.00 | 0.13 | 0.02 | 91 | 1017.0 |
| 20260508040852 | 45 | 36 | 4.3 | 5.2 | 0.00 | 0.13 | 0.02 | 91 | 1017.0 |
| 20260508040352 | 46 | 60 | 2.6 | 4.3 | 0.00 | 0.13 | 0.02 | 91 | 1017.0 |
| 20260508035851 | 45 | 39 | 1.7 | 4.3 | 0.00 | 0.13 | 0.02 | 91 | 1017.1 |
| 20260508035352 | 45 | 34 | 1.7 | 3.5 | 0.00 | 0.13 | 0.02 | 91 | 1016.9 |
| 20260508035141 | 45 | 34 | 1.7 | 3.5 | 0.00 | 0.13 | 0.02 | 91 | 1016.9 |
| 20260508034354 | 45 | 32 | 2.6 | 2.6 | 0.00 | 0.13 | 0.02 | 91 | 1016.9 |
| 20260508033853 | 45 | 32 | 1.7 | 2.6 | 0.00 | 0.13 | 0.02 | 91 | 1016.9 |
| 20260508033352 | 45 | 33 | 1.7 | 3.5 | 0.00 | 0.13 | 0.02 | 91 | 1016.9 |
| 20260508032853 | 45 | 33 | 2.6 | 3.5 | 0.00 | 0.13 | 0.02 | 91 | 1016.9 |
| 20260508032646 | 45 | 29 | 2.6 | 3.5 | 0.00 | 0.13 | 0.02 | 91 | 1016.8 |
| 20260508031851 | 45 | 39 | 0.9 | 3.5 | 0.00 | 0.14 | 0.02 | 91 | 1016.7 |
| 20260508031351 | 45 | 39 | 1.7 | 3.5 | 0.00 | 0.14 | 0.02 | 91 | 1016.7 |
| 20260508030852 | 45 | 39 | 1.7 | 2.6 | 0.00 | 0.16 | 0.02 | 91 | 1016.8 |
| 20260508030442 | 45 | 39 | 0.9 | 2.6 | 0.00 | 0.20 | 0.02 | 91 | 1016.8 |
| 20260508030425 | 45 | 39 | 0.9 | 2.6 | 0.00 | 0.18 | 0.02 | 91 | 1016.8 |
| 20260508025350 | 45 | 39 | 0.9 | 2.6 | 0.00 | 0.21 | 0.02 | 91 | 1016.8 |
| 20260508024850 | 45 | 39 | 1.7 | 2.6 | 0.00 | 0.22 | 0.02 | 91 | 1016.8 |
| 20260508024351 | 45 | 39 | 0.9 | 1.7 | 0.00 | 0.23 | 0.02 | 91 | 1016.7 |
| 20260508023946 | 45 | 39 | 0.0 | 2.6 | 0.00 | 0.26 | 0.02 | 91 | 1016.6 |
| 20260508023925 | 45 | 39 | 0.0 | 1.7 | 0.00 | 0.24 | 0.02 | 91 | 1016.5 |
| 20260508023138 | 45 | 39 | 1.7 | 2.6 | 0.00 | 0.28 | 0.02 | 91 | 1016.7 |
| 20260508022352 | 45 | 37 | 1.7 | 3.5 | 0.00 | 0.29 | 0.02 | 91 | 1016.7 |
| 20260508021850 | 45 | 37 | 1.7 | 3.5 | 0.00 | 0.31 | 0.02 | 91 | 1016.7 |
| 20260508021350 | 45 | 37 | 1.7 | 2.6 | 0.00 | 0.31 | 0.02 | 91 | 1016.7 |
| 20260508020850 | 45 | 37 | 0.9 | 2.6 | 0.00 | 0.33 | 0.02 | 91 | 1016.6 |
| 20260508020350 | 45 | 37 | 1.7 | 2.6 | 0.00 | 0.34 | 0.02 | 91 | 1016.7 |
| 20260508015851 | 45 | 37 | 0.0 | 3.5 | 0.00 | 0.35 | 0.02 | 90 | 1016.7 |
| 20260508015351 | 45 | 47 | 0.0 | 3.5 | 0.00 | 0.36 | 0.02 | 90 | 1016.6 |
| 20260508015136 | 45 | 46 | 1.7 | 2.6 | 0.00 | 0.36 | 0.02 | 90 | 1016.6 |
| 20260508014348 | 45 | 46 | 0.9 | 2.6 | 0.00 | 0.38 | 0.02 | 90 | 1016.6 |
| 20260508013849 | 45 | 46 | 0.0 | 2.6 | 0.00 | 0.38 | 0.02 | 90 | 1016.5 |
| 20260508013350 | 45 | 46 | 1.7 | 2.6 | 0.00 | 0.39 | 0.02 | 90 | 1016.5 |
| 20260508013132 | 45 | 46 | 1.7 | 2.6 | 0.00 | 0.39 | 0.02 | 90 | 1016.5 |
| 20260508012351 | 45 | 46 | 0.9 | 2.6 | 0.00 | 0.40 | 0.02 | 90 | 1016.5 |
| 20260508011851 | 45 | 46 | 0.9 | 2.6 | 0.00 | 0.40 | 0.02 | 90 | 1016.5 |
| 20260508011628 | 45 | 46 | 1.7 | 3.5 | 0.00 | 0.41 | 0.02 | 90 | 1016.5 |
| 20260508010850 | 45 | 43 | 1.7 | 4.3 | 0.00 | 0.41 | 0.02 | 90 | 1016.5 |
| 20260508010350 | 45 | 40 | 3.5 | 4.3 | 0.00 | 0.41 | 0.02 | 90 | 1016.4 |
| 20260508005936 | 45 | 9 | 2.6 | 4.3 | 0.00 | 0.41 | 0.02 | 90 | 1016.5 |
| 20260508005920 | 45 | 13 | 1.7 | 4.3 | 0.00 | 0.41 | 0.02 | 90 | 1016.5 |
| 20260508004849 | 45 | 51 | 0.9 | 6.1 | 0.00 | 0.41 | 0.02 | 90 | 1016.3 |
| 20260508004348 | 45 | 51 | 3.5 | 6.1 | 0.00 | 0.41 | 0.02 | 90 | 1016.4 |
| 20260508003848 | 45 | 53 | 1.7 | 3.5 | 0.00 | 0.41 | 0.02 | 90 | 1016.4 |
| 20260508003348 | 45 | 39 | 0.9 | 3.5 | 0.00 | 0.41 | 0.02 | 90 | 1016.4 |
| 20260508002849 | 45 | 29 | 0.9 | 3.5 | 0.00 | 0.41 | 0.02 | 90 | 1016.4 |
| 20260508002414 | 45 | 18 | 4.3 | 6.1 | 0.00 | 0.41 | 0.02 | 90 | 1016.4 |
| 20260508002403 | 45 | 44 | 3.5 | 6.1 | 0.00 | 0.41 | 0.02 | 90 | 1016.4 |
| 20260508001634 | 45 | 49 | 2.6 | 4.3 | 0.00 | 0.41 | 0.02 | 90 | 1016.5 |
| 20260508000848 | 45 | 54 | 1.7 | 4.3 | 0.00 | 0.41 | 0.02 | 90 | 1016.5 |
| 20260508000349 | 45 | 40 | 2.6 | 4.3 | 0.00 | 0.41 | 0.02 | 90 | 1016.4 |
| 20260508000129 | 45 | 40 | 3.5 | 5.2 | 0.00 | 0.41 | 0.02 | 90 | 1016.4 |
| 20260507235347 | 45 | 44 | 2.6 | 6.1 | 0.00 | 0.41 | 0.02 | 90 | 1016.5 |
| 20260507234848 | 46 | 41 | 3.5 | 6.1 | 0.00 | 0.41 | 0.02 | 90 | 1016.5 |
| 20260507234349 | 46 | 32 | 2.6 | 5.2 | 0.00 | 0.41 | 0.02 | 90 | 1016.5 |
| 20260507233846 | 46 | 41 | 3.5 | 5.2 | 0.01 | 0.41 | 0.02 | 90 | 1016.6 |
| 20260507233630 | 46 | 15 | 3.5 | 4.3 | 0.01 | 0.41 | 0.02 | 90 | 1016.7 |
| 20260507232846 | 46 | 10 | 1.7 | 2.6 | 0.01 | 0.41 | 0.02 | 90 | 1016.7 |
| 20260507232347 | 46 | 26 | 1.7 | 5.2 | 0.01 | 0.41 | 0.02 | 90 | 1016.7 |
| 20260507232124 | 46 | 26 | 3.5 | 5.2 | 0.01 | 0.41 | 0.02 | 90 | 1016.6 |
| 20260507231346 | 46 | 47 | 1.7 | 4.3 | 0.01 | 0.41 | 0.02 | 90 | 1016.6 |
| 20260507230845 | 46 | 56 | 2.6 | 4.3 | 0.01 | 0.41 | 0.02 | 90 | 1016.5 |
| 20260507230345 | 46 | 20 | 2.6 | 4.3 | 0.01 | 0.41 | 0.02 | 90 | 1016.6 |
| 20260507225847 | 46 | 16 | 1.7 | 2.6 | 0.02 | 0.39 | 0.02 | 90 | 1016.6 |
| 20260507225347 | 46 | 16 | 1.7 | 5.2 | 0.02 | 0.39 | 0.02 | 90 | 1016.7 |
| 20260507224846 | 46 | 16 | 2.6 | 5.2 | 0.02 | 0.39 | 0.02 | 90 | 1016.7 |
| 20260507224345 | 46 | 15 | 0.9 | 3.5 | 0.02 | 0.39 | 0.02 | 90 | 1016.7 |
| 20260507223847 | 46 | 27 | 2.6 | 3.5 | 0.01 | 0.39 | 0.01 | 90 | 1016.8 |
| 20260507223345 | 46 | 29 | 2.6 | 4.3 | 0.02 | 0.39 | 0.01 | 90 | 1016.8 |
| 20260507222845 | 46 | 29 | 2.6 | 4.3 | 0.02 | 0.39 | 0.01 | 90 | 1016.8 |
| 20260507222347 | 46 | 27 | 1.7 | 3.5 | 0.02 | 0.39 | 0.01 | 90 | 1016.7 |
| 20260507221847 | 46 | 26 | 1.7 | 4.3 | 0.02 | 0.39 | 0.01 | 90 | 1016.7 |
| 20260507221629 | 46 | 32 | 2.6 | 4.3 | 0.02 | 0.39 | 0.01 | 90 | 1016.7 |
| 20260507220847 | 46 | 27 | 1.7 | 4.3 | 0.02 | 0.39 | 0.01 | 90 | 1016.7 |
| 20260507220347 | 46 | 30 | 2.6 | 2.6 | 0.02 | 0.39 | 0.00 | 90 | 1016.7 |
| 20260507215847 | 46 | 32 | 0.9 | 3.5 | 0.01 | 0.39 | 0.39 | 90 | 1016.7 |
| 20260507215347 | 46 | 29 | 2.6 | 4.3 | 0.01 | 0.39 | 0.39 | 90 | 1016.6 |
| 20260507214846 | 46 | 22 | 2.6 | 4.3 | 0.01 | 0.39 | 0.39 | 90 | 1016.6 |
| 20260507214346 | 46 | 23 | 1.7 | 3.5 | 0.01 | 0.39 | 0.39 | 90 | 1016.6 |
| 20260507213847 | 46 | 23 | 1.7 | 3.5 | 0.01 | 0.39 | 0.39 | 90 | 1016.6 |
| 20260507213346 | 46 | 23 | 0.9 | 4.3 | 0.00 | 0.39 | 0.39 | 90 | 1016.5 |
| 20260507212846 | 46 | 23 | 3.5 | 4.3 | 0.00 | 0.39 | 0.39 | 90 | 1016.5 |
| 20260507212629 | 46 | 44 | 1.7 | 3.5 | 0.00 | 0.39 | 0.39 | 90 | 1016.5 |
| 20260507212127 | 46 | 8 | 2.6 | 3.5 | 0.00 | 0.39 | 0.39 | 90 | 1016.4 |
| 20260507211345 | 46 | 26 | 2.6 | 4.3 | 0.00 | 0.39 | 0.39 | 90 | 1016.4 |
| 20260507210847 | 46 | 26 | 1.7 | 4.3 | 0.00 | 0.39 | 0.39 | 90 | 1016.4 |
| 20260507210347 | 46 | 37 | 1.7 | 3.5 | 0.00 | 0.39 | 0.39 | 90 | 1016.3 |
| 20260507205847 | 46 | 39 | 2.6 | 4.3 | 0.00 | 0.39 | 0.39 | 90 | 1016.2 |
| 20260507205346 | 46 | 60 | 3.5 | 4.3 | 0.00 | 0.39 | 0.39 | 90 | 1016.2 |
| 20260507204844 | 46 | 50 | 0.9 | 5.2 | 0.00 | 0.39 | 0.39 | 90 | 1016.2 |
| 20260507204633 | 46 | 50 | 3.5 | 5.2 | 0.00 | 0.39 | 0.39 | 90 | 1016.1 |
| 20260507204126 | 46 | 16 | 2.6 | 5.2 | 0.00 | 0.39 | 0.39 | 90 | 1016.0 |
| 20260507203629 | 46 | 33 | 3.5 | 5.2 | 0.00 | 0.39 | 0.39 | 90 | 1016.1 |
| 20260507202843 | 46 | 53 | 5.2 | 6.1 | 0.00 | 0.39 | 0.39 | 90 | 1015.9 |
| 20260507202630 | 46 | 27 | 3.5 | 6.1 | 0.00 | 0.39 | 0.39 | 90 | 1015.9 |
| 20260507202129 | 46 | 30 | 4.3 | 5.2 | 0.00 | 0.39 | 0.39 | 90 | 1015.8 |
| 20260507201345 | 46 | 37 | 3.5 | 5.2 | 0.00 | 0.39 | 0.39 | 90 | 1015.7 |
| 20260507200845 | 46 | 8 | 4.3 | 5.2 | 0.00 | 0.39 | 0.39 | 90 | 1015.7 |
| 20260507200622 | 46 | 51 | 2.6 | 4.3 | 0.00 | 0.39 | 0.39 | 90 | 1015.7 |
| 20260507195845 | 46 | 25 | 2.6 | 4.3 | 0.00 | 0.39 | 0.39 | 90 | 1015.5 |
| 20260507195342 | 46 | 25 | 3.5 | 5.2 | 0.00 | 0.39 | 0.39 | 90 | 1015.6 |
| 20260507194844 | 46 | 43 | 1.7 | 5.2 | 0.00 | 0.39 | 0.39 | 90 | 1015.5 |
| 20260507194342 | 46 | 32 | 4.3 | 5.2 | 0.00 | 0.39 | 0.39 | 90 | 1015.5 |
| 20260507193844 | 46 | 47 | 2.6 | 4.3 | 0.00 | 0.39 | 0.39 | 90 | 1015.5 |
| 20260507193342 | 46 | 50 | 0.9 | 5.2 | 0.00 | 0.39 | 0.39 | 90 | 1015.5 |
| 20260507192844 | 46 | 32 | 3.5 | 5.2 | 0.00 | 0.39 | 0.39 | 90 | 1015.4 |
| 20260507192715 | 46 | 51 | 3.5 | 5.2 | 0.00 | 0.39 | 0.39 | 90 | 1015.4 |
| 20260507192407 | 46 | 41 | 2.6 | 5.2 | 0.00 | 0.39 | 0.39 | 90 | 1015.5 |
| 20260507191343 | 46 | 23 | 4.3 | 5.2 | 0.00 | 0.39 | 0.39 | 89 | 1015.4 |
| 20260507191219 | 46 | 44 | 3.5 | 6.1 | 0.00 | 0.39 | 0.39 | 89 | 1015.3 |
| 20260507191212 | 46 | 50 | 2.6 | 6.1 | 0.00 | 0.39 | 0.39 | 89 | 1015.4 |
| 20260507190129 | 46 | 50 | 3.5 | 6.1 | 0.00 | 0.39 | 0.39 | 89 | 1015.2 |
| 20260507185342 | 46 | 41 | 3.5 | 6.1 | 0.00 | 0.39 | 0.39 | 89 | 1015.1 |
| 20260507184843 | 46 | 34 | 3.5 | 6.1 | 0.00 | 0.39 | 0.39 | 89 | 1015.2 |
| 20260507184343 | 46 | 39 | 3.5 | 6.1 | 0.00 | 0.39 | 0.39 | 89 | 1015.2 |
| 20260507183843 | 46 | 37 | 3.5 | 7.8 | 0.00 | 0.39 | 0.39 | 89 | 1015.1 |
| 20260507183343 | 46 | 33 | 4.3 | 7.8 | 0.00 | 0.39 | 0.39 | 89 | 1015.0 |
| 20260507182845 | 46 | 25 | 6.1 | 7.8 | 0.00 | 0.39 | 0.39 | 89 | 1014.9 |
| 20260507182342 | 46 | 18 | 4.3 | 8.7 | 0.00 | 0.39 | 0.39 | 89 | 1014.9 |
| 20260507181841 | 46 | 50 | 3.5 | 9.6 | 0.00 | 0.39 | 0.39 | 89 | 1014.8 |
| 20260507181341 | 46 | 32 | 6.1 | 9.6 | 0.00 | 0.39 | 0.39 | 89 | 1014.7 |
| 20260507180843 | 46 | 43 | 5.2 | 8.7 | 0.00 | 0.39 | 0.39 | 89 | 1014.7 |
| 20260507180343 | 46 | 30 | 2.6 | 8.7 | 0.00 | 0.39 | 0.39 | 89 | 1014.7 |
| 20260507175842 | 47 | 9 | 5.2 | 7.8 | 0.00 | 0.39 | 0.39 | 89 | 1014.7 |
| 20260507175336 | 47 | 39 | 5.2 | 7.8 | 0.00 | 0.39 | 0.39 | 89 | 1014.5 |
| 20260507174832 | 47 | 41 | 4.3 | 6.1 | 0.00 | 0.39 | 0.39 | 89 | 1014.5 |
| 20260507174333 | 47 | 27 | 2.6 | 8.7 | 0.00 | 0.39 | 0.39 | 89 | 1014.4 |
| 20260507173832 | 47 | 20 | 4.3 | 8.7 | 0.00 | 0.39 | 0.39 | 89 | 1014.4 |
| 20260507173331 | 47 | 6 | 3.5 | 7.8 | 0.00 | 0.39 | 0.39 | 89 | 1014.3 |
| 20260507173054 | 47 | 29 | 5.2 | 9.6 | 0.00 | 0.39 | 0.39 | 89 | 1014.4 |
| 20260507172307 | 47 | 3 | 5.2 | 9.6 | 0.00 | 0.39 | 0.39 | 89 | 1014.2 |
| 20260507172049 | 47 | 32 | 3.5 | 7.8 | 0.00 | 0.39 | 0.39 | 89 | 1014.2 |
| 20260507171302 | 47 | 356 | 3.5 | 6.1 | 0.00 | 0.39 | 0.39 | 89 | 1014.2 |
| 20260507170804 | 47 | 33 | 2.6 | 6.1 | 0.00 | 0.39 | 0.39 | 89 | 1014.0 |
| 20260507170303 | 47 | 20 | 4.3 | 10.4 | 0.00 | 0.39 | 0.39 | 89 | 1014.1 |
| 20260507165802 | 47 | 20 | 5.2 | 10.4 | 0.00 | 0.39 | 0.39 | 89 | 1013.9 |
| 20260507165306 | 47 | 9 | 4.3 | 8.7 | 0.01 | 0.39 | 0.39 | 89 | 1014.0 |
| 20260507164803 | 47 | 37 | 5.2 | 7.8 | 0.01 | 0.39 | 0.39 | 89 | 1013.9 |
| 20260507164304 | 47 | 5 | 7.0 | 7.8 | 0.01 | 0.39 | 0.39 | 89 | 1013.8 |
| 20260507163803 | 47 | 34 | 2.6 | 10.4 | 0.01 | 0.39 | 0.39 | 89 | 1013.8 |
| 20260507163304 | 48 | 9 | 6.1 | 10.4 | 0.01 | 0.39 | 0.39 | 89 | 1013.7 |
| 20260507162804 | 48 | 51 | 5.2 | 8.7 | 0.01 | 0.39 | 0.39 | 89 | 1013.8 |
| 20260507162307 | 48 | 30 | 1.7 | 5.2 | 0.01 | 0.39 | 0.39 | 89 | 1013.8 |
| 20260507161803 | 48 | 30 | 3.5 | 6.1 | 0.02 | 0.39 | 0.39 | 89 | 1013.8 |
| 20260507161303 | 48 | 54 | 2.6 | 6.1 | 0.02 | 0.39 | 0.39 | 89 | 1013.8 |
| 20260507160804 | 48 | 39 | 2.6 | 6.1 | 0.02 | 0.39 | 0.39 | 89 | 1013.8 |
| 20260507160304 | 48 | 44 | 5.2 | 6.1 | 0.03 | 0.39 | 0.39 | 89 | 1013.7 |
| 20260507155803 | 48 | 30 | 3.5 | 7.8 | 0.04 | 0.35 | 0.39 | 89 | 1013.8 |
| 20260507155306 | 48 | 29 | 5.2 | 7.8 | 0.03 | 0.35 | 0.38 | 89 | 1013.7 |
| 20260507154803 | 48 | 16 | 4.3 | 7.8 | 0.03 | 0.35 | 0.38 | 89 | 1013.7 |
| 20260507154354 | 48 | 33 | 4.3 | 9.6 | 0.04 | 0.35 | 0.38 | 89 | 1013.6 |
| 20260507154341 | 48 | 27 | 3.5 | 9.6 | 0.04 | 0.35 | 0.38 | 89 | 1013.6 |